Location: Aghk�ilisa
(40.0189°N, 45.0097°E)
Time: 07:02:29
(UTC+00:00)

Cosmos 1763 Rocket - Pass Details

Date: 21 October 2019
Orbit: 733 x 779 km, 74.0° (Epoch: 17 November)

Event Time Altitude Azimuth Distance (km) Brightness Sun altitude
Rises 16:35:55 0° 203° (SSW) 3,248 6.9 -28.1°
Reaches altitude 10° 16:38:18 10° 205° (SSW) 2,324 6.1 -28.6°
Enters shadow 16:42:37 58° 230° (SW) 907 3.9 -29.4°
